Location: Litvinovka
(48.6667°N, 34.3500°E)
Time: 07:06:11
(UTC+00:00)

Cosmos 2082 Rocket - Pass Details

Date: 18 September 2020
Orbit: 834 x 852 km, 71.0° (Epoch: 21 October)

Event Time Altitude Azimuth Distance (km) Brightness Sun altitude
Rises 20:41:40 0° 325° (NW) 3,393 6.2 -38.5°
Reaches altitude 10° 20:44:20 10° 316° (NW) 2,455 5.2 -38.6°
Enters shadow 20:46:14 19° 302° (WNW) 1,873 4.3 -38.7°
